Time,TemperatureF,DewpointF,PressureIn,WindDirection,WindDirectionDegrees,WindSpeedMPH,WindSpeedGustMPH,Humidity,HourlyPrecipIn,Conditions,Clouds,dailyrainin,SoftwareType,DateUTC
2013-04-28 00:03:00,47.1,40.0,30.31,SE,127,0.0,0.0,76,0.00,,,0.00,weatherlink.com 1.10,2013-04-28 04:03:00,
2013-04-28 00:18:00,46.9,41.0,30.31,SE,127,0.0,0.0,79,0.00,,,0.00,weatherlink.com 1.10,2013-04-28 04:18:00,
2013-04-28 00:33:00,46.2,39.0,30.31,SE,127,0.0,0.0,77,0.00,,,0.00,weatherlink.com 1.10,2013-04-28 04:33:00,
2013-04-28 00:48:00,46.0,39.0,30.31,SE,127,0.0,0.0,77,0.00,,,0.00,weatherlink.com 1.10,2013-04-28 04:48:00,
2013-04-28 01:03:00,45.7,40.0,30.30,SE,127,0.0,0.0,79,0.00,,,0.00,weatherlink.com 1.10,2013-04-28 05:03:00,
2013-04-28 01:18:00,45.3,40.0,30.30,SE,127,0.0,0.0,80,0.00,,,0.00,weatherlink.com 1.10,2013-04-28 05:18:00,
2013-04-28 01:33:00,43.7,38.0,30.30,SE,127,0.0,0.0,80,0.00,,,0.00,weatherlink.com 1.10,2013-04-28 05:33:00,
2013-04-28 01:48:00,43.5,39.0,30.30,SE,127,0.0,0.0,83,0.00,,,0.00,weatherlink.com 1.10,2013-04-28 05:48:00,
2013-04-28 02:03:00,42.5,38.0,30.30,SE,127,0.0,0.0,83,0.00,,,0.00,weatherlink.com 1.10,2013-04-28 06:03:00,
2013-04-28 02:18:00,41.0,37.0,30.29,SE,127,0.0,0.0,85,0.00,,,0.00,weatherlink.com 1.10,2013-04-28 06:18:00,
2013-04-28 02:33:00,40.0,37.0,30.29,SE,127,0.0,0.0,87,0.00,,,0.00,weatherlink.com 1.10,2013-04-28 06:33:00,
2013-04-28 02:48:00,39.2,36.0,30.29,SE,127,0.0,0.0,89,0.00,,,0.00,weatherlink.com 1.10,2013-04-28 06:48:00,
2013-04-28 03:03:00,38.6,36.0,30.29,SE,127,0.0,0.0,89,0.00,,,0.00,weatherlink.com 1.10,2013-04-28 07:03:00,
2013-04-28 03:18:00,38.1,36.0,30.29,SE,127,0.0,0.0,91,0.00,,,0.00,weatherlink.com 1.10,2013-04-28 07:18:00,
2013-04-28 03:33:00,37.9,36.0,30.28,SE,127,0.0,0.0,91,0.00,,,0.00,weatherlink.com 1.10,2013-04-28 07:33:00,
2013-04-28 03:48:00,37.4,36.0,30.28,SE,127,0.0,0.0,93,0.00,,,0.00,weatherlink.com 1.10,2013-04-28 07:48:00,
2013-04-28 04:03:00,36.7,35.0,30.28,SE,127,0.0,0.0,93,0.00,,,0.00,weatherlink.com 1.10,2013-04-28 08:03:00,
2013-04-28 04:18:00,36.6,35.0,30.28,SE,127,0.0,0.0,94,0.00,,,0.00,weatherlink.com 1.10,2013-04-28 08:18:00,
2013-04-28 04:33:00,36.6,35.0,30.28,SE,127,0.0,0.0,94,0.00,,,0.00,weatherlink.com 1.10,2013-04-28 08:33:00,
2013-04-28 04:48:00,36.3,35.0,30.28,SE,127,0.0,0.0,95,0.00,,,0.00,weatherlink.com 1.10,2013-04-28 08:48:00,
2013-04-28 05:03:00,35.9,35.0,30.29,SE,127,0.0,0.0,95,0.00,,,0.00,weatherlink.com 1.10,2013-04-28 09:03:00,
2013-04-28 05:18:00,35.7,34.0,30.29,SE,127,0.0,0.0,95,0.00,,,0.00,weatherlink.com 1.10,2013-04-28 09:18:00,
2013-04-28 05:33:00,35.9,35.0,30.29,East,101,0.0,0.0,95,0.00,,,0.00,weatherlink.com 1.10,2013-04-28 09:33:00,
2013-04-28 05:48:00,35.0,34.0,30.28,East,101,0.0,0.0,95,0.00,,,0.00,weatherlink.com 1.10,2013-04-28 09:48:00,
2013-04-28 06:04:00,35.4,34.0,30.28,East,101,0.0,0.0,96,0.00,,,0.00,weatherlink.com 1.10,2013-04-28 10:04:00,
2013-04-28 06:19:00,35.7,35.0,30.29,East,101,0.0,0.0,96,0.00,,,0.00,weatherlink.com 1.10,2013-04-28 10:19:00,
2013-04-28 06:34:00,36.8,36.0,30.30,East,100,0.0,0.0,97,0.00,,,0.00,weatherlink.com 1.10,2013-04-28 10:34:00,
2013-04-28 06:49:00,37.7,37.0,30.30,East,101,0.0,0.0,97,0.00,,,0.00,weatherlink.com 1.10,2013-04-28 10:49:00,
2013-04-28 07:04:00,38.2,38.0,30.31,ESE,102,0.0,0.0,97,0.00,,,0.00,weatherlink.com 1.10,2013-04-28 11:04:00,
2013-04-28 07:19:00,40.1,40.0,30.31,ESE,118,0.0,0.0,98,0.00,,,0.00,weatherlink.com 1.10,2013-04-28 11:19:00,
2013-04-28 07:34:00,41.7,41.0,30.31,ESE,118,0.0,0.0,97,0.00,,,0.00,weatherlink.com 1.10,2013-04-28 11:34:00,
2013-04-28 07:49:00,44.0,43.0,30.31,ESE,119,0.0,0.0,95,0.00,,,0.00,weatherlink.com 1.10,2013-04-28 11:49:00,
2013-04-28 08:04:00,46.5,44.0,30.31,ESE,119,0.0,0.0,91,0.00,,,0.00,weatherlink.com 1.10,2013-04-28 12:04:00,
2013-04-28 08:19:00,50.0,44.0,30.31,East,98,0.0,0.0,81,0.00,,,0.00,weatherlink.com 1.10,2013-04-28 12:19:00,
2013-04-28 08:34:00,52.6,45.0,30.31,East,95,0.0,0.0,75,0.00,,,0.00,weatherlink.com 1.10,2013-04-28 12:34:00,
2013-04-28 08:49:00,53.5,44.0,30.31,East,99,2.0,3.0,69,0.00,,,0.00,weatherlink.com 1.10,2013-04-28 12:49:00,
2013-04-28 09:04:00,54.8,43.0,30.31,East,98,2.0,3.0,64,0.00,,,0.00,weatherlink.com 1.10,2013-04-28 13:04:00,
2013-04-28 09:19:00,56.8,44.0,30.31,East,84,5.0,5.0,63,0.00,,,0.00,weatherlink.com 1.10,2013-04-28 13:19:00,
2013-04-28 09:34:00,56.5,43.0,30.31,ENE,77,2.0,4.0,61,0.00,,,0.00,weatherlink.com 1.10,2013-04-28 13:34:00,
2013-04-28 09:49:00,57.5,43.0,30.30,NE,34,0.0,3.0,58,0.00,,,0.00,weatherlink.com 1.10,2013-04-28 13:49:00,
2013-04-28 10:04:00,59.3,43.0,30.30,East,89,2.0,6.0,55,0.00,,,0.00,weatherlink.com 1.10,2013-04-28 14:04:00,
2013-04-28 10:19:00,61.2,43.0,30.30,East,79,1.0,2.0,51,0.00,,,0.00,weatherlink.com 1.10,2013-04-28 14:19:00,
2013-04-28 10:34:00,61.5,43.0,30.30,East,98,0.0,7.0,50,0.00,,,0.00,weatherlink.com 1.10,2013-04-28 14:34:00,
2013-04-28 10:49:00,62.4,43.0,30.30,ESE,115,3.0,5.0,50,0.00,,,0.00,weatherlink.com 1.10,2013-04-28 14:49:00,
2013-04-28 11:04:00,63.4,43.0,30.29,SW,236,1.0,5.0,47,0.00,,,0.00,weatherlink.com 1.10,2013-04-28 15:04:00,
2013-04-28 11:19:00,64.0,43.0,30.29,SE,124,2.0,5.0,47,0.00,,,0.00,weatherlink.com 1.10,2013-04-28 15:19:00,
2013-04-28 11:34:00,65.0,42.0,30.29,ENE,72,1.0,5.0,43,0.00,,,0.00,weatherlink.com 1.10,2013-04-28 15:34:00,
2013-04-28 11:49:00,65.4,41.0,30.28,ESE,109,2.0,5.0,41,0.00,,,0.00,weatherlink.com 1.10,2013-04-28 15:49:00,
2013-04-28 12:04:00,67.3,42.0,30.28,SE,129,1.0,6.0,40,0.00,,,0.00,weatherlink.com 1.10,2013-04-28 16:04:00,
2013-04-28 12:19:00,68.6,42.0,30.27,ENE,76,0.0,4.0,38,0.00,,,0.00,weatherlink.com 1.10,2013-04-28 16:19:00,
2013-04-28 12:36:00,68.4,42.0,30.27,SE,129,2.0,8.0,38,0.00,,,0.00,weatherlink.com 1.10,2013-04-28 16:36:00,
2013-04-28 12:50:00,67.5,42.0,30.27,East,94,7.0,8.0,40,0.00,,,0.00,weatherlink.com 1.10,2013-04-28 16:50:00,
2013-04-28 13:05:00,67.6,43.0,30.26,NW,307,2.0,8.0,41,0.00,,,0.00,weatherlink.com 1.10,2013-04-28 17:05:00,
2013-04-28 13:20:00,67.8,44.0,30.25,East,101,1.0,8.0,42,0.00,,,0.00,weatherlink.com 1.10,2013-04-28 17:20:00,
2013-04-28 13:35:00,68.3,44.0,30.25,NE,54,1.0,9.0,41,0.00,,,0.00,weatherlink.com 1.10,2013-04-28 17:35:00,
2013-04-28 13:50:00,68.4,44.0,30.25,ESE,109,6.0,6.0,42,0.00,,,0.00,weatherlink.com 1.10,2013-04-28 17:50:00,
2013-04-28 14:05:00,68.2,44.0,30.24,ESE,117,3.0,7.0,42,0.00,,,0.00,weatherlink.com 1.10,2013-04-28 18:05:00,
2013-04-28 14:20:00,69.0,45.0,30.25,ESE,118,4.0,7.0,42,0.00,,,0.00,weatherlink.com 1.10,2013-04-28 18:20:00,
2013-04-28 14:35:00,67.5,44.0,30.24,SE,141,4.0,8.0,43,0.00,,,0.00,weatherlink.com 1.10,2013-04-28 18:35:00,
2013-04-28 14:50:00,68.5,44.0,30.23,SE,126,2.0,6.0,42,0.00,,,0.00,weatherlink.com 1.10,2013-04-28 18:50:00,
2013-04-28 15:05:00,68.3,43.0,30.23,ESE,102,3.0,10.0,40,0.00,,,0.00,weatherlink.com 1.10,2013-04-28 19:05:00,
2013-04-28 15:20:00,66.8,42.0,30.22,SE,127,4.0,7.0,41,0.00,,,0.00,weatherlink.com 1.10,2013-04-28 19:20:00,
2013-04-28 15:35:00,66.5,41.0,30.22,ESE,120,4.0,8.0,39,0.00,,,0.00,weatherlink.com 1.10,2013-04-28 19:35:00,
2013-04-28 15:50:00,67.2,41.0,30.22,ESE,106,1.0,4.0,38,0.00,,,0.00,weatherlink.com 1.10,2013-04-28 19:50:00,
2013-04-28 16:05:00,66.7,40.0,30.22,SSW,200,2.0,10.0,38,0.00,,,0.00,weatherlink.com 1.10,2013-04-28 20:05:00,
2013-04-28 16:20:00,67.0,38.0,30.22,SE,131,3.0,8.0,35,0.00,,,0.00,weatherlink.com 1.10,2013-04-28 20:20:00,
2013-04-28 16:35:00,65.9,37.0,30.22,East,91,2.0,10.0,35,0.00,,,0.00,weatherlink.com 1.10,2013-04-28 20:35:00,
2013-04-28 16:50:00,64.9,36.0,30.22,East,95,1.0,7.0,35,0.00,,,0.00,weatherlink.com 1.10,2013-04-28 20:50:00,
2013-04-28 17:05:00,64.7,36.0,30.22,SE,141,3.0,10.0,34,0.00,,,0.00,weatherlink.com 1.10,2013-04-28 21:05:00,
2013-04-28 17:20:00,64.3,35.0,30.22,SE,127,1.0,7.0,34,0.00,,,0.00,weatherlink.com 1.10,2013-04-28 21:20:00,
2013-04-28 17:35:00,63.5,34.0,30.22,ESE,106,4.0,6.0,34,0.00,,,0.00,weatherlink.com 1.10,2013-04-28 21:35:00,
2013-04-28 17:50:00,62.7,34.0,30.21,East,101,2.0,8.0,34,0.00,,,0.00,weatherlink.com 1.10,2013-04-28 21:50:00,
2013-04-28 18:06:00,62.2,33.0,30.21,ESE,122,2.0,5.0,34,0.00,,,0.00,weatherlink.com 1.10,2013-04-28 22:06:00,
2013-04-28 18:20:00,61.5,33.0,30.22,ESE,120,1.0,6.0,35,0.00,,,0.00,weatherlink.com 1.10,2013-04-28 22:20:00,
2013-04-28 18:35:00,60.4,33.0,30.21,ESE,120,3.0,7.0,36,0.00,,,0.00,weatherlink.com 1.10,2013-04-28 22:35:00,
2013-04-28 18:50:00,59.5,33.0,30.21,NNW,347,2.0,2.0,37,0.00,,,0.00,weatherlink.com 1.10,2013-04-28 22:50:00,
2013-04-28 19:05:00,58.6,32.0,30.21,SE,130,2.0,4.0,37,0.00,,,0.00,weatherlink.com 1.10,2013-04-28 23:05:00,
2013-04-28 19:20:00,57.7,32.0,30.21,East,95,0.0,3.0,38,0.00,,,0.00,weatherlink.com 1.10,2013-04-28 23:20:00,
2013-04-28 19:35:00,57.0,32.0,30.20,SE,130,0.0,4.0,39,0.00,,,0.00,weatherlink.com 1.10,2013-04-28 23:35:00,
2013-04-28 19:50:00,56.2,33.0,30.21,SE,124,1.0,1.0,41,0.00,,,0.00,weatherlink.com 1.10,2013-04-28 23:50:00,
2013-04-28 20:05:00,55.0,35.0,30.21,SE,124,0.0,1.0,47,0.00,,,0.00,weatherlink.com 1.10,2013-04-29 00:05:00,
2013-04-28 20:20:00,53.8,37.0,30.22,SE,133,0.0,0.0,53,0.00,,,0.00,weatherlink.com 1.10,2013-04-29 00:20:00,
2013-04-28 20:35:00,52.4,38.0,30.23,SE,133,0.0,0.0,58,0.00,,,0.00,weatherlink.com 1.10,2013-04-29 00:35:00,
2013-04-28 20:50:00,51.6,38.0,30.22,SE,132,0.0,0.0,60,0.00,,,0.00,weatherlink.com 1.10,2013-04-29 00:50:00,
2013-04-28 21:05:00,50.9,37.0,30.22,SE,133,0.0,0.0,60,0.00,,,0.00,weatherlink.com 1.10,2013-04-29 01:05:00,
2013-04-28 21:20:00,50.4,37.0,30.23,SE,133,0.0,0.0,60,0.00,,,0.00,weatherlink.com 1.10,2013-04-29 01:20:00,
2013-04-28 21:35:00,50.5,36.0,30.23,SE,134,0.0,0.0,57,0.00,,,0.00,weatherlink.com 1.10,2013-04-29 01:35:00,
2013-04-28 21:50:00,50.5,36.0,30.23,SE,136,0.0,0.0,59,0.00,,,0.00,weatherlink.com 1.10,2013-04-29 01:50:00,
2013-04-28 22:05:00,49.7,37.0,30.23,SE,134,0.0,0.0,63,0.00,,,0.00,weatherlink.com 1.10,2013-04-29 02:05:00,
2013-04-28 22:20:00,49.8,37.0,30.24,SE,134,0.0,0.0,62,0.00,,,0.00,weatherlink.com 1.10,2013-04-29 02:20:00,
2013-04-28 22:35:00,49.5,38.0,30.23,SE,134,0.0,0.0,64,0.00,,,0.00,weatherlink.com 1.10,2013-04-29 02:35:00,
2013-04-28 22:50:00,49.5,38.0,30.24,SE,134,0.0,0.0,65,0.00,,,0.00,weatherlink.com 1.10,2013-04-29 02:50:00,
2013-04-28 23:05:00,48.9,38.0,30.24,SE,134,0.0,0.0,65,0.00,,,0.00,weatherlink.com 1.10,2013-04-29 03:05:00,
2013-04-28 23:20:00,48.8,39.0,30.24,SE,134,0.0,0.0,69,0.00,,,0.00,weatherlink.com 1.10,2013-04-29 03:20:00,
2013-04-28 23:36:00,48.0,37.0,30.25,SE,134,0.0,0.0,67,0.00,,,0.00,weatherlink.com 1.10,2013-04-29 03:36:00,
2013-04-28 23:50:00,48.0,39.0,30.25,SE,134,0.0,0.0,71,0.00,,,0.00,weatherlink.com 1.10,2013-04-29 03:50:00,